Regional Weather Roundup
Issued by NWS Goodland, KS

Home | Current Version | Previous Version | Text Only | Print | Product List | Glossary Off
Versions: 1 2 3 4 5 6 7 8 9 10 11 12 13 14 15 16 17 18 19 20 21 22 23 24 25 26 27 28 29 30 31 32 33 34 35 36 37 38 39 40 41 42 43 44 45 46 47 48 49 50

000
ASUS43 KGLD 041859
RWRGLD

GOODLAND FORECAST AREA HOURLY WEATHER ROUNDUP
NATIONAL WEATHER SERVICE GOODLAND KS
100 PM MDT FRI SEP 04 2015

...OFFICIAL OBSERVATIONS...

CITY           SKY/WX    TMP DP  RH WIND       PRES   REMARKS
GOODLAND KS    SUNNY     91  47  21 MISG      29.92F
HILL CITY KS   SUNNY     96  57  27 S12       29.84F
IMPERIAL NEB   MOSUNNY   89  53  29 W6        29.89F
MCCOOK NEB     MOSUNNY   91  60  35 CALM      29.85F
AKRON CO       SUNNY     89  37  16 MISG      29.97F
BURLINGTON CO  SUNNY     90  43  19 VRB3      29.96F
LIMON CO       MOSUNNY   85  41  21 S8G18     30.03F
$$

...UNOFFICIAL OBSERVATIONS...

CITY           SKY/WX    TMP DP  RH WIND       PRES   REMARKS
COLBY KS       SUNNY     93  55  27 W5        29.90F
GOVE KS          N/A     92  32  12 MISG        N/A
LENORA KS        N/A     91  32  12 MISG        N/A
NORTON KS      SUNNY     93  55  27 S13       29.84S
SHARON SPRINGS   N/A     92  55  28 CALM        N/A
TRENTON NEB      N/A     90  32  12 W6          N/A
KIT CARSON CO    N/A     90  51  26 MISG        N/A
$$



USA.gov is the U.S. government's official web portal to all federal, state and local government web resources and services.